Location: Waco, TX
(31.5480°N, 97.1670°W)
Time: 14:49:47
(UTC-05:00)

ISS - Pass Details

Date: 18 August 2019
Orbit: 410 x 421 km, 51.6° (Epoch: 22 August)

Event Time Altitude Azimuth Distance (km) Brightness Sun altitude
Rises 07:58:27 0° 188° (S) 2,330 -0.1 12.2°
Reaches altitude 10° 08:01:07 10° 165° (SSE) 1,476 -0.8 12.8°
Maximum altitude 08:03:10 15° 126° (SE) 1,194 -0.6 13.2°
Drops below altitude 10° 08:05:13 10° 88° (E) 1,486 2.0 13.7°
Sets 08:07:55 0° 65° (ENE) 2,355 1.5 14.2°
